Notices

What's New in latest Release from April 7th, 2021:

- Updated Glossary, including Speed of Maximum Gust, and Total Hourly Precipitation

- Updated national and regional climate services offices contacts and prices information

- Addition of station inventory lists for 1981-2010, 1971-2000, and 1961-1990 Normals.

If you haven't already, please take our survey and provide feedback about our website: https://eccc.sondage-survey.ca/f/LanguageSelection.aspx?s=442ca660-fcf1-47c0-95a9-59707d6fd709

Hourly Data Report for February 24, 2021

OTTAWA INTL A
ONTARIO
Current Station Operator: NAVCAN

45°19'00.000" N
75°40'00.000" W
114.90 m
6106001
71628
YOW

Download Data

Hourly Data (February 2021)
Hourly Data Report for February 24, 2021
TIME
LST
Temp Definition
°C
Dew Point Definition
°C
Rel Hum Definition
%
Precip. Amount Definition
mm

Wind Dir Definition
10's deg

Wind Spd Definition
km/h
Visibility Definition
km
Stn Press Definition
kPa
Hmdx Definition


Wind Chill Definition


Weather Definition


00:00 1.6 -0.6 85   25 18 24.1 99.27     LegendNANA
01:00 1.4 -1.0 84   26 20 24.1 99.41     Mostly Cloudy
02:00 0.9 -1.8 82   27 18 24.1 99.51     LegendNANA
03:00 0.2 -1.9 86   25 13 24.1 99.59     LegendNANA
04:00 -1.3 -2.6 90   23 10 24.1 99.66   -5 Clear
05:00 -1.5 -2.7 91   24 11 24.1 99.76   -5 LegendNANA
06:00 -2.3 -3.6 91   22 6 24.1 99.80   -5 LegendNANA
07:00 -2.8 -3.8 93   23 11 24.1 99.86   -7 Mostly Cloudy
08:00 -2.1 -3.5 90   22 9 24.1 99.88   -6 LegendNANA
09:00 -0.9 -3.0 85   36 3 24.1 99.83   -2 LegendNANA
10:00 -0.1 -3.2 80   36 3 24.1 99.74   -1 Mainly Clear
11:00 1.4 -2.5 75   20 9 24.1 99.71     LegendNANA
12:00 0.8 -1.3 86   18 12 12.9 99.61     Snow
13:00 0.2 -0.7 94   17 9 1.2 99.47     Snow
14:00 0.2 -0.3 96   9 12 1.2 99.21     Snow
15:00 0.1 -0.3 97   5 20 2.4 99.04     Snow
16:00 0.0 -0.3 97   6 20 1.2 98.89   -5 Snow
17:00 0.0 -0.3 98   8 14 0.8 98.80   -4 Moderate Snow
18:00 0.0 -0.3 98   4 17 3.2 98.72   -5 Snow
19:00 0.0 -0.3 98   4 20 1.2 98.64   -5 Snow
20:00 0.0 -0.3 98   3 14 9.7 98.61   -4 Snow
21:00 0.1 -0.2 98   35 15 4.0 98.66     Snow
22:00 0.1 -0.3 97   32 20 2.4 98.76     Snow
23:00 -0.5 -1.4 94   33 30 8.1 98.99   -7 Snow

Notes on Data Quality.

Legend

  • E = Estimated
  • M = Missing
  • NA = Not Available*
  • [empty] = Indicates an unobserved value
Date modified: